Date String (YYYY-MM-DD hh:mm:ss) UTC,Instrument flags,Ambient pressure (hPa),Sample flow (lpm),Bypass flow (lpm),Sample temperature (°C),Ambient temperature (°C),ASC tube jacket temperature (°C),LED temperature (°C),Box temperature (°C),Sample RH (%),Span deviation,Mass concentration (μg/m³),Mass concentration (μg/m³),Mass concentration (μg/m³)
DateTimeUTC,F1_M11,P_M11,Q1_M11,Q2_M11,T1_M11,T2_M11,T3_M11,T4_M11,T5_M11,U1_M11,ZSPAN_M11,X0_M11,X2_M11,X1_M11
2023-01-28 00:00:00,,0815.2,5.00,0.00,22.4,21.0,00.0,31.1,24.2,09.7,0000.0,0001.18,0000.56,0000.32
2023-01-28 00:01:00,,0815.2,5.01,0.00,22.3,21.0,00.0,31.1,24.2,09.7,0000.0,0001.17,0000.55,0000.32
2023-01-28 00:02:00,,0815.2,5.01,0.00,22.3,20.9,00.0,31.1,24.1,09.7,0000.0,0001.15,0000.56,0000.32
2023-01-28 00:03:00,,0815.3,4.99,0.00,22.3,20.8,00.0,31.1,24.1,09.7,0000.0,0001.14,0000.56,0000.32
2023-01-28 00:04:00,,0815.3,5.01,0.00,22.3,20.8,00.0,31.1,24.1,09.7,0000.0,0001.18,0000.57,0000.33
2023-01-28 00:05:00,,0815.3,4.98,0.00,22.3,20.8,00.0,31.1,24.1,09.7,0000.0,0001.16,0000.57,0000.33
2023-01-28 00:06:00,,0815.4,4.99,0.00,22.3,20.9,00.0,31.1,24.1,09.8,0000.0,0001.10,0000.56,0000.33
2023-01-28 00:07:00,,0815.5,5.00,0.00,22.3,21.0,00.0,31.1,24.1,09.8,0000.0,0001.14,0000.57,0000.33
2023-01-28 00:08:00,,0815.3,5.00,0.00,22.3,21.0,00.0,31.1,24.1,09.9,0000.0,0001.20,0000.59,0000.33
2023-01-28 00:09:00,,0815.3,4.98,0.00,22.3,21.0,00.0,31.1,24.1,09.9,0000.0,0001.26,0000.61,0000.33
2023-01-28 00:10:00,,0815.2,5.00,0.00,22.3,21.0,00.0,31.1,24.1,09.9,0000.0,0001.29,0000.63,0000.34
2023-01-28 00:11:00,,0815.2,5.01,0.00,22.3,20.9,00.0,31.1,24.1,09.7,0000.0,0001.26,0000.63,0000.36
2023-01-28 00:12:00,,0815.3,5.00,0.00,22.3,20.9,00.0,31.1,24.0,09.8,0000.0,0001.20,0000.62,0000.37
2023-01-28 00:13:00,,0815.3,5.01,0.00,22.3,20.8,00.0,31.1,24.0,09.7,0000.0,0001.18,0000.61,0000.38
2023-01-28 00:14:00,,0815.3,4.99,0.00,22.2,20.7,00.0,31.1,23.9,09.9,0000.0,0001.19,0000.61,0000.39
2023-01-28 00:15:00,,0815.3,5.00,0.00,22.2,20.7,00.0,31.1,24.0,09.8,0000.0,0002.46,0000.61,0000.38
2023-01-28 00:16:00,,0815.3,5.01,0.00,22.2,20.7,00.0,31.1,24.0,09.9,0000.0,0002.53,0000.61,0000.39
2023-01-28 00:17:00,,0815.3,4.98,0.00,22.2,20.7,00.0,31.1,24.0,10.0,0000.0,0002.49,0000.61,0000.41
2023-01-28 00:18:00,,0815.3,5.00,0.00,22.2,20.7,00.0,31.1,24.0,09.9,0000.0,0002.49,0000.62,0000.41
2023-01-28 00:19:00,,0815.2,4.99,0.00,22.2,20.7,00.0,31.1,24.0,09.9,0000.0,0002.43,0000.61,0000.42
2023-01-28 00:20:00,,0815.4,4.99,0.00,22.2,20.7,00.0,31.1,23.9,10.0,0000.0,0002.40,0000.61,0000.43
2023-01-28 00:21:00,,0815.3,5.01,0.00,22.2,20.7,00.0,31.1,23.9,10.1,0000.0,0002.46,0000.63,0000.44
2023-01-28 00:22:00,,0815.3,5.02,0.00,22.2,20.7,00.0,31.1,23.9,09.9,0000.0,0002.47,0000.63,0000.43
2023-01-28 00:23:00,,0815.3,4.98,0.00,22.2,20.7,00.0,31.1,23.9,10.0,0000.0,0002.56,0000.65,0000.42
2023-01-28 00:24:00,,0815.3,5.01,0.00,22.2,20.7,00.0,31.1,23.9,10.1,0000.0,0002.51,0000.63,0000.42
2023-01-28 00:25:00,,0815.3,5.00,0.00,22.2,20.7,00.0,31.1,23.8,10.1,0000.0,0002.49,0000.63,0000.43
2023-01-28 00:26:00,,0815.3,5.01,0.00,22.1,20.7,00.0,31.1,23.8,10.0,0000.0,0002.06,0000.65,0000.44
2023-01-28 00:27:00,,0815.3,4.98,0.00,22.1,20.6,00.0,31.0,23.8,09.8,0000.0,0002.59,0000.64,0000.44
2023-01-28 00:28:00,,0815.3,5.01,0.00,22.1,20.6,00.0,31.0,23.8,09.9,0000.0,0002.59,0000.64,0000.44
2023-01-28 00:29:00,,0815.4,5.00,0.00,22.1,20.6,00.0,31.0,23.8,10.0,0000.0,0002.68,0000.66,0000.44
2023-01-28 00:30:00,,0815.3,5.01,0.00,22.1,20.6,00.0,31.0,23.8,09.8,0000.0,0002.83,0000.72,0000.43
2023-01-28 00:31:00,,0815.3,4.99,0.00,22.0,20.4,00.0,31.0,23.7,09.8,0000.0,0002.82,0000.70,0000.42
2023-01-28 00:32:00,,0815.3,4.98,0.00,22.0,20.3,00.0,31.0,23.7,09.9,0000.0,0002.85,0000.71,0000.42
2023-01-28 00:33:00,,0815.2,5.01,0.00,22.0,20.4,00.0,31.0,23.6,10.1,0000.0,0002.84,0000.71,0000.41
2023-01-28 00:34:00,,0815.3,5.00,0.00,22.0,20.6,00.0,30.9,23.7,10.0,0000.0,0002.76,0000.69,0000.42
2023-01-28 00:35:00,,0815.4,5.01,0.00,22.1,21.4,00.0,30.9,24.0,10.1,0000.0,0002.86,0000.72,0000.43
2023-01-28 00:36:00,,0815.3,5.00,0.00,22.2,22.3,00.0,30.9,24.2,10.3,0000.0,0002.96,0000.73,0000.42
2023-01-28 00:37:00,,0815.3,5.01,0.00,22.3,22.4,00.0,31.0,24.3,10.0,0000.0,0002.67,0000.74,0000.42
2023-01-28 00:38:00,,0815.3,5.02,0.00,22.3,22.1,00.0,31.0,24.3,10.0,0000.0,0001.58,0000.74,0000.42
2023-01-28 00:39:00,,0815.3,4.99,0.00,22.3,21.8,00.0,31.0,24.2,09.9,0000.0,0001.55,0000.73,0000.41
2023-01-28 00:40:00,,0815.3,5.01,0.00,22.3,21.6,00.0,31.1,24.1,09.7,0000.0,0001.50,0000.72,0000.41
2023-01-28 00:41:00,,0815.4,5.00,0.00,22.3,21.4,00.0,31.1,24.1,09.8,0000.0,0001.50,0000.71,0000.42
2023-01-28 00:42:00,,0815.3,5.01,0.00,22.3,21.3,00.0,31.1,24.1,09.8,0000.0,0001.54,0000.72,0000.42
2023-01-28 00:43:00,,0815.2,5.00,0.00,22.3,21.1,00.0,31.1,24.1,09.7,0000.0,0001.47,0000.70,0000.42
2023-01-28 00:44:00,,0815.3,5.00,0.00,22.3,21.0,00.0,31.1,24.0,09.8,0000.0,0001.43,0000.69,0000.42
2023-01-28 00:45:00,,0815.3,5.02,0.00,22.3,20.9,00.0,31.1,24.0,10.0,0000.0,0001.41,0000.68,0000.42
2023-01-28 00:46:00,,0815.3,4.98,0.00,22.3,20.9,00.0,31.1,24.0,09.8,0000.0,0001.35,0000.65,0000.41
2023-01-28 00:47:00,,0815.3,5.01,0.00,22.3,20.8,00.0,31.1,23.9,09.7,0000.0,0001.87,0000.65,0000.41
2023-01-28 00:48:00,,0815.3,5.00,0.00,22.2,20.7,00.0,31.1,24.0,09.9,0000.0,0001.87,0000.61,0000.40
2023-01-28 00:49:00,,0815.2,5.00,0.00,22.2,20.7,00.0,31.1,24.0,09.7,0000.0,0001.82,0000.61,0000.40
2023-01-28 00:50:00,,0815.4,5.01,0.00,22.2,20.7,00.0,31.1,24.0,09.9,0000.0,0001.87,0000.65,0000.41
2023-01-28 00:51:00,,0815.3,5.01,0.00,22.2,20.6,00.0,31.1,23.9,09.9,0000.0,0001.88,0000.65,0000.42
2023-01-28 00:52:00,,0815.3,5.01,0.00,22.2,20.6,00.0,31.1,23.8,09.9,0000.0,0001.74,0000.62,0000.42
2023-01-28 00:53:00,,0815.5,4.99,0.00,22.1,20.5,00.0,31.1,23.8,09.9,0000.0,0001.62,0000.57,0000.41
2023-01-28 00:54:00,,0815.4,5.03,0.00,22.1,20.5,00.0,31.1,23.8,09.8,0000.0,0001.61,0000.57,0000.41
2023-01-28 00:55:00,,0815.4,4.98,0.00,22.1,20.5,00.0,31.1,23.7,10.1,0000.0,0001.64,0000.58,0000.41
2023-01-28 00:56:00,,0815.7,5.02,0.00,22.1,20.5,00.0,31.0,23.7,10.4,0000.0,0001.61,0000.57,0000.42
2023-01-28 00:57:00,,0815.4,4.98,0.00,22.0,20.5,00.0,31.0,23.7,10.1,0000.0,0001.62,0000.57,0000.42
2023-01-28 00:58:00,,0815.6,5.00,0.00,22.0,20.4,00.0,31.0,23.7,10.0,0000.0,0001.03,0000.57,0000.42
2023-01-28 00:59:00,,0816.0,5.00,0.00,22.0,20.5,00.0,31.0,23.7,10.2,0000.0,0000.93,0000.58,0000.42
